[[{"header":{"parameterUnit":"m.s-1","parameterCategory":2,"la1":30.2991,"la2":30.254,"lo1":-89.0895,"lo2":-89.0444,"dy":0.0017,"dx":0.0017,"nx":28,"ny":28,"refTime":"2025-02-24T09:00:00:Z","depth":"0","parameterNumber":2,"parameterNumberName":"U-component_of_CURRENTS"},"data":[0,0,0,0,0,0,0,0,0,0,0,0,0,0,0,0,0,0,0,0,0,0,0,0,0,0,0,0,0,0,0,0,0,0,0,0,0,0,0,0,0,0,0,0,0,0,0,0,0,0,0,0,0,0,0,0,0,0,0.3939,0.3939,0,0.4016,0.4017,0.4018,0.3993,0.3991,0.399,0.3988,0.3901,0.39,0.39,0,0,0,0,0,0,0,0,0,0,0,0,0,0.3886,0.3886,0.3939,0.394,0.3941,0.4016,0.4017,0.4018,0.3993,0.3991,0.3989,0.3987,0.3901,0.39,0.3899,0,0,0,0,0,0,0,0,0,0,0,0,0,0.393,0.3887,0.3938,0.3938,0.3938,0.4016,0.4017,0.4018,0.3994,0.3991,0.3989,0.3987,0.3902,0.3901,0.3899,0.3941,0,0,0.3896,0.3895,0,0,0,0,0,0,0,0,0.3928,0.3932,0.3937,0.3938,0.3939,0.3993,0.3967,0.3984,0.3994,0.3972,0.3988,0.3985,0.3919,0.3916,0.3938,0.3937,0.3933,0.3896,0.3895,0.3894,0.3894,0,0,0,0,0,0,0,0.3924,0.3929,0.3969,0.3938,0.3939,0.3974,0.3976,0.3971,0.3955,0.3974,0.3973,0.3983,0.3917,0.3939,0.3935,0.3932,0.3896,0.3895,0.3894,0.3893,0.3949,0.3951,0,0,0,0,0,0,0.3912,0.3926,0.3966,0.3971,0.3928,0.3976,0.3979,0.3978,0.3958,0.3955,0.3985,0.3981,0.3942,0.3936,0.3931,0.3966,0.3894,0.3893,0.3892,0.3947,0.3949,0.3952,0,0,0,0,0,0,0.3911,0.3915,0.3963,0.3951,0.396,0.3979,0.3978,0.398,0.4003,0.3968,0.396,0.4004,0.394,0.3933,0.394,0.3962,0.3893,0.3892,0.3944,0.3947,0.395,0.4042,0,0,0,0,0,0,0.3909,0.3914,0.3915,0.395,0.396,0.4022,0.3981,0.3984,0.4013,0.4009,0.3983,0.3972,0.3938,0.3942,0.3938,0.3959,0.3891,0.3941,0.3945,0.3949,0.4036,0.4048,0.4058,0,0,0,0,0,0.3906,0.3917,0.3915,0.392,0.3959,0.4024,0.4034,0.4039,0.4016,0.4046,0.4023,0.3973,0.3965,0.3943,0.3939,0.3959,0.3939,0.3944,0.3949,0.4032,0.4046,0.4058,0,0,0,0,0,0,0.3883,0.3917,0.3914,0.3929,0.398,0.402,0.405,0.4053,0.4065,0.4051,0.4006,0.3997,0.4009,0.3983,0.396,0.399,0.3943,0.3947,0.4007,0.402,0.4031,0.4039,0.389,0,0,0,0,0,0.3883,0.3912,0.3946,0.3968,0.3991,0.4025,0.4052,0.406,0.4074,0.4078,0.4054,0.4034,0.4032,0.4023,0.4016,0.4037,0.4055,0.4048,0.4059,0.4068,0.4074,0.4152,0.4171,0.3968,0.3968,0.3968,0,0,0.3883,0.3907,0.3922,0.3969,0.4006,0.4045,0.4036,0.4088,0.4112,0.4065,0.4081,0.4073,0.4049,0.407,0.4073,0.4045,0.414,0.4074,0.4082,0.4083,0.416,0.418,0.4197,0.3971,0.3971,0.397,0,0,0.3903,0.3921,0.3948,0.3992,0.405,0.4078,0.4095,0.4138,0.4148,0.4177,0.4148,0.4163,0.4148,0.4148,0.4142,0.4215,0.4199,0.4205,0.4261,0.4338,0.4355,0.4371,0.4436,0.4456,0.4206,0.4207,0.4207,0,0.3897,0.3934,0.3972,0.4009,0.4048,0.409,0.4129,0.416,0.4194,0.4215,0.4185,0.4214,0.4188,0.4232,0.4249,0.4239,0.4278,0.4209,0.4353,0.4369,0.4383,0.4446,0.4467,0.4212,0.4211,0.4211,0.421,0,0.3932,0.3968,0.3999,0.4054,0.4099,0.4159,0.4197,0.4235,0.4247,0.4272,0.4322,0.4315,0.4334,0.4331,0.4303,0.4392,0.4388,0.4363,0.4319,0.4409,0.4469,0.449,0.4219,0.4217,0.4216,0.4214,0,0,0.3906,0.4004,0.4012,0.4047,0.4133,0.4171,0.4227,0.43,0.434,0.437,0.4429,0.444,0.4455,0.4452,0.4441,0.4493,0.4624,0.4471,0.4473,0.4536,0.4803,0.4713,0.4726,0.4632,0.4636,0.4639,0.481,0,0.3929,0.3991,0.4043,0.4118,0.4158,0.4224,0.4277,0.4339,0.439,0.4455,0.4487,0.4532,0.4499,0.4516,0.4575,0.461,0.4681,0.458,0.4706,0.4709,0.4619,0.4748,0.4611,0.4745,0.483,0.4833,0.4836,0,0.3942,0.3986,0.4048,0.4152,0.4177,0.422,0.4323,0.438,0.4485,0.4525,0.4599,0.4629,0.4718,0.4669,0.4813,0.4755,0.4793,0.4815,0.4823,0.4717,0.4658,0.4666,0.4779,0.4686,0.4867,0.4865,0.4862,0,0.3899,0.3996,0.4047,0.408,0.4189,0.4227,0.429,0.4392,0.4466,0.4577,0.4659,0.4749,0.4824,0.4889,0.4946,0.4897,0.5103,0.5038,0.5002,0.4996,0.489,0.4867,0.4923,0.5158,0.5157,0.5157,0.5156,0,0.3914,0.3964,0.4023,0.4052,0.4112,0.4194,0.4283,0.4357,0.4494,0.4588,0.4698,0.4787,0.4889,0.501,0.5022,0.5094,0.5181,0.5045,0.5047,0.4918,0.4896,0.4814,0.4767,0.5163,0.5162,0.5161,0.516,0,0.3898,0.3942,0.3992,0.4071,0.4095,0.4131,0.4274,0.4345,0.4492,0.4625,0.4674,0.4871,0.5003,0.511,0.5226,0.5203,0.5124,0.5255,0.5089,0.5066,0.4867,0.4829,0.4692,0.4547,0.5229,0.5228,0.5227,0,0.3923,0.3934,0.397,0.398,0.4023,0.4091,0.4148,0.4301,0.4391,0.4645,0.471,0.4915,0.5025,0.5211,0.5198,0.5256,0.5106,0.5141,0.4996,0.4868,0.4831,0.4621,0.4493,0.4914,0.4911,0.4908,0.4906,0,0.3941,0.3925,0.3931,0.394,0.3974,0.4027,0.4124,0.4197,0.4383,0.452,0.4675,0.4794,0.5006,0.4999,0.5113,0.511,0.4901,0.508,0.5014,0.4647,0.4362,0.4218,0.4787,0.4881,0.4884,0.4886,0.4887,0.4888,0.3923,0.3896,0.3865,0.3882,0.3912,0.3935,0.3931,0.4051,0.4157,0.4288,0.4482,0.4572,0.4765,0.4888,0.4872,0.4785,0.4714,0.4657,0.4647,0.4465,0.4229,0.4727,0.4766,0.4767,0.4769,0.477,0.4771,0,0.3859,0.3823,0.3827,0.3784,0.3772,0.3828,0.3888,0.3852,0.3884,0.4039,0.4124,0.4254,0.4358,0.449,0.4549,0.4404,0.4196,0.4301,0.4015,0.3926,0.4465,0.4354,0.4224,0.4224,0.4224,0.4225,0.4225,0.4225,0.3802,0.3743,0.3729,0.3645,0.3628,0.3533,0.3522,0.3486,0.3544,0.3544,0.3581,0.3696,0.4081,0.4339,0.4288,0.4177,0.3854,0.3698,0.3652,0.4105,0.4137,0.4167,0.4053,0.3862,0.3862,0.2953,0.2947,0.2942]},{"header":{"parameterUnit":"m.s-1","parameterCategory":2,"la1":30.2991,"la2":30.254,"lo1":-89.0895,"lo2":-89.0444,"dy":0.0017,"dx":0.0017,"nx":28,"ny":28,"refTime":"2025-02-24T09:00:00:Z","depth":"0","parameterNumber":3,"parameterNumberName":"V-component_of_CURRENTS"},"data":[0,0,0,0,0,0,0,0,0,0,0,0,0,0,0,0,0,0,0,0,0,0,0,0,0,0,0,0,0,0,0,0,0,0,0,0,0,0,0,0,0,0,0,0,0,0,0,0,0,0,0,0,0,0,0,0,0,0,-0.0348,-0.0349,0,-0.0459,-0.0461,-0.0463,-0.0487,-0.0486,-0.0484,-0.0483,-0.0517,-0.0519,-0.0521,0,0,0,0,0,0,0,0,0,0,0,0,0,-0.0325,-0.0325,-0.0348,-0.0349,-0.035,-0.0459,-0.0461,-0.0464,-0.0487,-0.0486,-0.0484,-0.0482,-0.0516,-0.0519,-0.0521,0,0,0,0,0,0,0,0,0,0,0,0,0,-0.0382,-0.0325,-0.0348,-0.037,-0.0372,-0.0459,-0.0461,-0.0464,-0.0488,-0.0486,-0.0483,-0.0481,-0.0515,-0.0518,-0.0522,-0.0587,0,0,-0.0532,-0.0534,0,0,0,0,0,0,0,0,-0.0379,-0.0384,-0.0366,-0.0368,-0.0371,-0.0451,-0.0465,-0.0499,-0.0488,-0.0452,-0.0483,-0.048,-0.0484,-0.049,-0.0528,-0.0589,-0.059,-0.0532,-0.0535,-0.0536,-0.0537,0,0,0,0,0,0,0,-0.0374,-0.038,-0.04,-0.0366,-0.037,-0.0431,-0.0436,-0.0474,-0.0483,-0.0455,-0.0455,-0.0456,-0.0486,-0.0524,-0.0528,-0.0591,-0.0532,-0.0535,-0.0537,-0.0539,-0.0628,-0.0629,0,0,0,0,0,0,-0.034,-0.0375,-0.0396,-0.0402,-0.0361,-0.0432,-0.0438,-0.0433,-0.0485,-0.0489,-0.0458,-0.0457,-0.052,-0.0524,-0.0529,-0.0527,-0.0536,-0.0539,-0.0541,-0.0628,-0.0629,-0.0629,0,0,0,0,0,0,-0.0339,-0.034,-0.0391,-0.0386,-0.0396,-0.0432,-0.0429,-0.0437,-0.0463,-0.0487,-0.049,-0.0473,-0.0518,-0.0524,-0.0544,-0.053,-0.0541,-0.0544,-0.0628,-0.0628,-0.0629,-0.0574,0,0,0,0,0,0,-0.0338,-0.034,-0.0341,-0.0383,-0.0394,-0.0427,-0.0431,-0.044,-0.0464,-0.0464,-0.0502,-0.0503,-0.0517,-0.0539,-0.0547,-0.0535,-0.0546,-0.0627,-0.0628,-0.0629,-0.0575,-0.0572,-0.057,0,0,0,0,0,-0.0337,-0.0338,-0.034,-0.0343,-0.0389,-0.0427,-0.044,-0.0464,-0.0467,-0.0481,-0.0498,-0.0502,-0.0548,-0.0542,-0.0552,-0.0541,-0.0627,-0.0628,-0.0629,-0.0576,-0.0573,-0.057,0,0,0,0,0,0,-0.0329,-0.0341,-0.0344,-0.0349,-0.0377,-0.0427,-0.0447,-0.0466,-0.05,-0.0493,-0.0516,-0.052,-0.0531,-0.0553,-0.0546,-0.057,-0.0586,-0.0588,-0.0542,-0.054,-0.0537,-0.0494,-0.0549,0,0,0,0,0,-0.0326,-0.0334,-0.0352,-0.0362,-0.0368,-0.0411,-0.0434,-0.0447,-0.0475,-0.0489,-0.0508,-0.0529,-0.055,-0.0555,-0.0582,-0.0604,-0.06,-0.0602,-0.0599,-0.0596,-0.057,-0.0576,-0.0571,-0.0631,-0.0631,-0.0631,0,0,-0.0334,-0.0337,-0.0346,-0.0362,-0.0389,-0.0384,-0.0421,-0.0445,-0.0438,-0.0487,-0.0488,-0.0525,-0.0557,-0.057,-0.0577,-0.058,-0.0576,-0.0597,-0.0595,-0.0569,-0.0576,-0.057,-0.0564,-0.0632,-0.0632,-0.0632,0,0,-0.0324,-0.0344,-0.0331,-0.0343,-0.0359,-0.0382,-0.038,-0.0417,-0.043,-0.0448,-0.0472,-0.0498,-0.0536,-0.055,-0.0563,-0.0569,-0.0567,-0.0579,-0.0525,-0.0532,-0.0526,-0.0521,-0.0496,-0.0489,-0.0572,-0.0572,-0.0572,0,-0.0323,-0.0301,-0.034,-0.0316,-0.0312,-0.0366,-0.0338,-0.0371,-0.0408,-0.0405,-0.0428,-0.0477,-0.052,-0.0518,-0.0523,-0.0558,-0.055,-0.0531,-0.0525,-0.052,-0.0516,-0.0492,-0.0485,-0.057,-0.057,-0.057,-0.057,0,-0.0282,-0.0269,-0.0266,-0.0242,-0.0252,-0.025,-0.0269,-0.0285,-0.0308,-0.0326,-0.0339,-0.0407,-0.0426,-0.0456,-0.0493,-0.0484,-0.0482,-0.0524,-0.0524,-0.0506,-0.0482,-0.0476,-0.0566,-0.0567,-0.0568,-0.0568,0,0,-0.0252,-0.0235,-0.0229,-0.0196,-0.0205,-0.0201,-0.0195,-0.0193,-0.0162,-0.0224,-0.0184,-0.027,-0.031,-0.0329,-0.0387,-0.0403,-0.0387,-0.0444,-0.0445,-0.0401,-0.0368,-0.038,-0.0374,-0.0424,-0.0423,-0.0422,-0.0358,0,-0.0197,-0.0121,-0.014,-0.0082,-0.004,-0.0082,-0.0066,-0.0075,-0.009,-0.0071,-0.0147,-0.015,-0.026,-0.0269,-0.0305,-0.0358,-0.0369,-0.0398,-0.0407,-0.0406,-0.0406,-0.0368,-0.0358,-0.0302,-0.0352,-0.0351,-0.035,0,-0.0131,-0.0081,-0.0003,0.0035,0.0048,0.0065,0.0104,0.0112,0.0106,0.0093,0.0066,0.001,-0.0031,-0.013,-0.0199,-0.0209,-0.0281,-0.033,-0.0329,-0.0349,-0.0407,-0.0334,-0.0288,-0.0506,-0.0341,-0.0342,-0.0342,0,-0.0047,0.0011,0.0083,0.0098,0.0131,0.0153,0.0163,0.0171,0.0212,0.0205,0.0251,0.0166,0.0161,0.0048,-0.0082,-0.0135,-0.013,-0.0222,-0.0292,-0.0293,-0.0289,-0.0291,-0.0438,-0.0262,-0.0262,-0.0263,-0.0263,0,0.0026,0.0078,0.013,0.0175,0.0265,0.0248,0.0334,0.0328,0.0367,0.0464,0.0344,0.0413,0.0206,0.017,0.0011,-0.0092,-0.0064,-0.0253,-0.0274,-0.027,-0.0272,-0.0467,-0.0607,-0.026,-0.0261,-0.0261,-0.0262,0,0.0086,0.0112,0.0216,0.0286,0.0308,0.0378,0.0448,0.0522,0.0531,0.0665,0.0671,0.0626,0.0575,0.0392,0.0244,0.0061,-0.0183,-0.0114,-0.0079,-0.0099,-0.0417,-0.0553,-0.07,-0.0792,-0.0189,-0.0189,-0.0189,0,0.0116,0.0181,0.0319,0.0398,0.0426,0.0518,0.0588,0.0603,0.0706,0.0818,0.0915,0.089,0.0936,0.0716,0.0373,0.0127,-0.0116,-0.0064,-0.0197,-0.0406,-0.0574,-0.0686,-0.0762,-0.0159,-0.0159,-0.0159,-0.0159,0,0.02,0.0257,0.0358,0.0527,0.0623,0.0744,0.0855,0.0962,0.1027,0.1168,0.1356,0.1404,0.1164,0.091,0.0508,0.0294,-0.0239,-0.0068,-0.0298,-0.0565,-0.068,-0.0787,-0.0215,-0.0156,-0.0156,-0.0157,-0.0157,-0.0157,0.0279,0.0376,0.0524,0.0674,0.0803,0.0982,0.1112,0.1268,0.1476,0.1715,0.1706,0.1842,0.1379,0.0834,0.0484,-0.0182,-0.0218,-0.0405,-0.0545,-0.0631,-0.076,-0.0168,-0.0143,-0.0143,-0.0143,-0.0143,-0.0143,0,0.0404,0.0502,0.0658,0.0861,0.1035,0.1067,0.1305,0.1469,0.177,0.1975,0.2155,0.2028,0.1458,0.0829,-0.007,-0.0564,-0.0769,-0.0839,-0.1014,-0.1065,-0.0534,-0.0576,-0.0627,-0.0627,-0.0627,-0.0627,-0.0626,-0.0626,0.0484,0.0647,0.0726,0.1025,0.1172,0.1414,0.1572,0.1833,0.2035,0.2343,0.2444,0.2466,0.2002,0.0335,-0.0765,-0.1018,-0.1398,-0.1488,-0.1657,-0.1333,-0.1305,-0.1277,-0.1351,-0.1563,-0.1565,-0.2123,-0.2129,-0.2133]}],[{"header":{"parameterUnit":"m.s-1","parameterCategory":2,"la1":30.2991,"la2":30.254,"lo1":-89.0895,"lo2":-89.0444,"dy":0.0017,"dx":0.0017,"nx":28,"ny":28,"refTime":"2025-02-24T09:00:00:Z","depth":"2","parameterNumber":2,"parameterNumberName":"U-component_of_CURRENTS"},"data":[0,0,0,0,0,0,0,0,0,0,0,0,0,0,0,0,0,0,0,0,0,0,0,0,0,0,0,0,0,0,0,0,0,0,0,0,0,0,0,0,0,0,0,0,0,0,0,0,0,0,0,0,0,0,0,0,0,0,0.2787,0.2788,0,0.2779,0.2778,0.2777,0.279,0.2791,0.2793,0.2794,0.286,0.2861,0.2861,0,0,0,0,0,0,0,0,0,0,0,0,0,0.2713,0.2714,0.2787,0.2788,0.2789,0.2779,0.2778,0.2777,0.2789,0.2791,0.2793,0.2795,0.286,0.2861,0.2861,0,0,0,0,0,0,0,0,0,0,0,0,0,0.2718,0.2714,0.2787,0.2802,0.2804,0.278,0.2778,0.2777,0.2789,0.2791,0.2793,0.2796,0.286,0.2861,0.2861,0.2821,0,0,0.2863,0.2863,0,0,0,0,0,0,0,0,0.2718,0.272,0.2799,0.2801,0.2804,0.2798,0.2777,0.2799,0.2788,0.2783,0.2794,0.2797,0.2852,0.2853,0.283,0.2824,0.2827,0.2863,0.2863,0.2864,0.2864,0,0,0,0,0,0,0,0.2718,0.272,0.2772,0.28,0.2803,0.2776,0.2779,0.2779,0.2798,0.2783,0.2787,0.2804,0.2853,0.2829,0.2832,0.2828,0.2863,0.2864,0.2864,0.2864,0.2958,0.296,0,0,0,0,0,0,0.2745,0.272,0.2773,0.2773,0.2778,0.2777,0.278,0.2788,0.2796,0.2802,0.2802,0.2805,0.2827,0.2831,0.2835,0.2919,0.2864,0.2864,0.2865,0.2956,0.2958,0.296,0,0,0,0,0,0,0.2743,0.2749,0.2773,0.2756,0.2759,0.2778,0.2786,0.2787,0.2789,0.2812,0.2817,0.2808,0.2829,0.2834,0.29,0.2918,0.2865,0.2865,0.2953,0.2956,0.2959,0.3006,0,0,0,0,0,0,0.274,0.2748,0.2759,0.2757,0.2761,0.2803,0.2785,0.2786,0.28,0.2804,0.2818,0.2825,0.2831,0.2899,0.29,0.2918,0.2866,0.295,0.2955,0.2958,0.3001,0.301,0.3017,0,0,0,0,0,0.2737,0.2755,0.2759,0.2766,0.2777,0.2805,0.2804,0.2816,0.2799,0.2819,0.2846,0.2826,0.2925,0.2902,0.2903,0.292,0.2948,0.2953,0.2958,0.2998,0.3008,0.3017,0,0,0,0,0,0,0.2738,0.2759,0.2763,0.2789,0.2817,0.2813,0.2828,0.2821,0.2844,0.2853,0.2854,0.2865,0.293,0.2923,0.2897,0.2963,0.2931,0.2936,0.2961,0.2971,0.2979,0.3009,0.2866,0,0,0,0,0,0.2742,0.2751,0.2782,0.2802,0.2819,0.2816,0.2825,0.2838,0.2861,0.287,0.2892,0.2914,0.294,0.2958,0.2988,0.3013,0.3036,0.3028,0.3036,0.3042,0.3071,0.3122,0.3137,0.2976,0.2976,0.2976,0,0,0.2731,0.276,0.2755,0.2802,0.2811,0.2839,0.2825,0.2857,0.2885,0.2875,0.2929,0.295,0.2959,0.301,0.3034,0.301,0.3102,0.3048,0.3053,0.3079,0.3128,0.3144,0.3158,0.2979,0.2979,0.2978,0,0,0.274,0.276,0.2775,0.2807,0.2857,0.2865,0.2882,0.2909,0.2932,0.2987,0.2989,0.3043,0.3068,0.3093,0.3098,0.3166,0.315,0.3155,0.3208,0.3256,0.327,0.3282,0.3335,0.3351,0.3148,0.3148,0.3148,0,0.2732,0.2765,0.2787,0.283,0.286,0.2881,0.2914,0.2935,0.2987,0.3016,0.303,0.3098,0.3113,0.3157,0.3193,0.3183,0.3207,0.3162,0.3266,0.3278,0.329,0.3341,0.3359,0.3151,0.3151,0.315,0.315,0,0.2766,0.279,0.2811,0.2862,0.29,0.2937,0.2986,0.3024,0.3053,0.3084,0.3168,0.3205,0.3249,0.3249,0.3244,0.3319,0.3309,0.3275,0.3237,0.3309,0.3358,0.3376,0.3155,0.3154,0.3153,0.3153,0,0,0.2731,0.2812,0.2812,0.2841,0.2924,0.295,0.3013,0.3075,0.3124,0.3187,0.3255,0.3312,0.3343,0.3356,0.3352,0.3396,0.3501,0.3375,0.3376,0.3421,0.3617,0.357,0.3584,0.3474,0.3477,0.348,0.362,0,0.2745,0.2814,0.2856,0.2904,0.2945,0.2992,0.3056,0.3121,0.319,0.3273,0.3316,0.3393,0.3376,0.3411,0.3455,0.3497,0.3549,0.3467,0.3548,0.3552,0.3494,0.3603,0.3316,0.3413,0.3637,0.364,0.3642,0,0.2758,0.2811,0.2868,0.2942,0.2964,0.3,0.3101,0.3168,0.3284,0.3349,0.3429,0.3472,0.3561,0.3533,0.3652,0.3598,0.3629,0.3652,0.3656,0.3613,0.3537,0.3379,0.3436,0.3671,0.3668,0.3666,0.3664,0,0.2723,0.28,0.2845,0.2874,0.2976,0.3007,0.3066,0.319,0.3268,0.3408,0.3482,0.358,0.3654,0.3706,0.3766,0.3718,0.3895,0.3823,0.3811,0.3807,0.3584,0.3555,0.392,0.392,0.392,0.392,0.3919,0,0.2715,0.2732,0.2829,0.2851,0.292,0.3005,0.3093,0.3179,0.3323,0.3426,0.3525,0.3618,0.3705,0.3799,0.3822,0.3893,0.3943,0.3867,0.3855,0.3593,0.3565,0.3794,0.3778,0.3925,0.3924,0.3923,0.3922,0,0.2646,0.2704,0.276,0.2869,0.2903,0.2956,0.3086,0.3159,0.3315,0.3451,0.3499,0.368,0.381,0.3885,0.4,0.3975,0.4033,0.4036,0.3735,0.3686,0.3897,0.3881,0.4044,0.4044,0.4043,0.4043,0.4043,0,0.2608,0.2643,0.276,0.2797,0.2836,0.2922,0.2988,0.3141,0.3229,0.3473,0.3533,0.3719,0.3822,0.3995,0.3998,0.4054,0.408,0.3799,0.3657,0.3945,0.3917,0.3902,0.3887,0.338,0.3374,0.337,0.3366,0,0.2569,0.262,0.267,0.2759,0.2814,0.2875,0.2979,0.3032,0.3223,0.3332,0.3506,0.3614,0.3814,0.3756,0.3848,0.3825,0.3764,0.371,0.4104,0.3395,0.333,0.3299,0.3304,0.3326,0.333,0.3333,0.3335,0.3336,0.2549,0.2563,0.2654,0.2703,0.2774,0.2817,0.2804,0.2919,0.3015,0.3145,0.3348,0.3415,0.3519,0.3517,0.3444,0.3387,0.3632,0.3448,0.3457,0.3471,0.3371,0.3311,0.3284,0.3288,0.3291,0.3294,0.3296,0,0.252,0.2536,0.2595,0.2631,0.2642,0.2731,0.2784,0.2738,0.2762,0.2943,0.3053,0.2898,0.2917,0.3,0.2872,0.2906,0.2822,0.277,0.2618,0.2664,0.2704,0.2557,0.2258,0.2254,0.225,0.2247,0,0,0.2516,0.2514,0.2514,0.2492,0.2519,0.2468,0.2459,0.2432,0.2493,0.2493,0.2522,0.2791,0.2936,0.2544,0.2527,0.2359,0.2472,0.2272,0.3121,0.299,0.3023,0.3136,0.297,0,0,0,0,0]},{"header":{"parameterUnit":"m.s-1","parameterCategory":2,"la1":30.2991,"la2":30.254,"lo1":-89.0895,"lo2":-89.0444,"dy":0.0017,"dx":0.0017,"nx":28,"ny":28,"refTime":"2025-02-24T09:00:00:Z","depth":"2","parameterNumber":3,"parameterNumberName":"V-component_of_CURRENTS"},"data":[0,0,0,0,0,0,0,0,0,0,0,0,0,0,0,0,0,0,0,0,0,0,0,0,0,0,0,0,0,0,0,0,0,0,0,0,0,0,0,0,0,0,0,0,0,0,0,0,0,0,0,0,0,0,0,0,0,0,0.0173,0.0173,0,0.0133,0.0133,0.0132,0.0069,0.0068,0.0067,0.0066,-0.0068,-0.0071,-0.0073,0,0,0,0,0,0,0,0,0,0,0,0,0,0.0183,0.0183,0.0173,0.0173,0.0172,0.0133,0.0133,0.0132,0.0069,0.0068,0.0067,0.0065,-0.0067,-0.007,-0.0073,0,0,0,0,0,0,0,0,0,0,0,0,0,0.0164,0.0183,0.0173,0.0137,0.0133,0.0134,0.0133,0.0132,0.007,0.0068,0.0066,0.0065,-0.0066,-0.007,-0.0074,-0.0065,0,0,-0.0085,-0.0087,0,0,0,0,0,0,0,0,0.0165,0.0164,0.0142,0.0139,0.0135,0.0105,0.0087,0.0062,0.007,0.0093,0.0066,0.0064,-0.0017,-0.0025,-0.0029,-0.0071,-0.0077,-0.0086,-0.0088,-0.009,-0.0091,0,0,0,0,0,0,0,0.0167,0.0165,0.0157,0.0142,0.0138,0.0118,0.0114,0.0082,0.0045,0.0091,0.0086,0.0083,-0.002,-0.0025,-0.0033,-0.0079,-0.0086,-0.0089,-0.0091,-0.0093,-0.0171,-0.0171,0,0,0,0,0,0,0.0175,0.0167,0.0158,0.0156,0.0147,0.012,0.0114,0.0116,0.0047,0.0036,0.0085,0.0081,-0.0017,-0.0028,-0.0038,-0.0058,-0.009,-0.0093,-0.0095,-0.0171,-0.0171,-0.017,0,0,0,0,0,0,0.0176,0.0175,0.016,0.016,0.0157,0.0121,0.0123,0.0116,0.0106,0.0044,0.0031,0.0082,-0.0019,-0.0032,-0.0078,-0.0063,-0.0095,-0.0098,-0.0171,-0.0171,-0.0171,-0.0082,0,0,0,0,0,0,0.0176,0.0176,0.018,0.0161,0.0157,0.0156,0.0125,0.0116,0.0107,0.0101,0.0037,0.0024,-0.0021,-0.0072,-0.0082,-0.0069,-0.0101,-0.0172,-0.0171,-0.0171,-0.0085,-0.0079,-0.0073,0,0,0,0,0,0.0177,0.0195,0.018,0.0179,0.0164,0.0156,0.0153,0.0121,0.0109,0.0106,0.0058,0.0025,-0.0076,-0.0075,-0.0086,-0.0074,-0.0172,-0.0171,-0.0171,-0.0088,-0.008,-0.0073,0,0,0,0,0,0,0.0201,0.019,0.0173,0.0186,0.0168,0.0146,0.0147,0.013,0.0095,0.0088,0.0027,0.001,-0.0026,-0.0062,-0.0059,-0.0097,-0.0128,-0.013,-0.0061,-0.0054,-0.0048,-0.0031,-0.0105,0,0,0,0,0,0.021,0.022,0.0198,0.0207,0.0202,0.0177,0.0171,0.0153,0.0122,0.0106,0.0058,0.0009,-0.0028,-0.0052,-0.0095,-0.0112,-0.0148,-0.0112,-0.0106,-0.0101,-0.0096,-0.0139,-0.0136,-0.0169,-0.0169,-0.0169,0,0,0.023,0.0217,0.0228,0.0212,0.0199,0.021,0.0169,0.0168,0.0172,0.0097,0.0079,0.0027,-0.003,-0.0055,-0.0073,-0.0086,-0.011,-0.01,-0.0095,-0.0093,-0.0138,-0.0135,-0.0132,-0.0168,-0.0168,-0.0169,0,0,0.027,0.0255,0.0277,0.0267,0.0249,0.0236,0.0239,0.0213,0.0193,0.0171,0.0118,0.0072,0.0017,-0.0023,-0.0047,-0.0032,-0.0079,-0.0041,0.0007,-0.0034,-0.0032,-0.003,-0.0064,-0.0066,-0.0034,-0.0034,-0.0034,0,0.0289,0.0311,0.0281,0.0292,0.0297,0.0254,0.0281,0.0261,0.022,0.0209,0.0171,0.0091,0.0034,0.0014,0.0011,-0.0017,-0.0045,-0.0012,-0.0025,-0.0024,-0.0024,-0.006,-0.0063,-0.003,-0.003,-0.0031,-0.0031,0,0.0344,0.0359,0.0371,0.0375,0.0373,0.0389,0.0361,0.0348,0.0318,0.0291,0.0249,0.0167,0.0119,0.0096,0.0055,0.0038,0.0016,-0.0013,-0.0038,-0.0015,-0.0054,-0.0059,-0.0024,-0.0025,-0.0027,-0.0028,0,0,0.0401,0.0411,0.0417,0.0435,0.0421,0.0432,0.0435,0.0429,0.0442,0.0372,0.0373,0.0286,0.0234,0.0202,0.0142,0.01,0.007,0.0052,0.0047,0.0028,-0.0013,-0.0037,-0.0045,0.0043,0.0042,0.0042,-0.0038,0,0.0455,0.0505,0.0492,0.0548,0.0575,0.0541,0.0548,0.0531,0.0502,0.0486,0.0395,0.0366,0.0279,0.0259,0.0201,0.0104,0.006,0.0095,-0.0042,-0.0046,-0.0062,-0.0051,-0.0023,-0.0093,-0.0044,-0.0044,-0.0045,0,0.0515,0.0541,0.0603,0.0635,0.0645,0.0666,0.0683,0.0685,0.0644,0.062,0.0568,0.0494,0.0417,0.0341,0.0185,0.0214,0.0108,0.0026,0.0021,-0.0036,-0.0079,-0.0112,-0.0105,-0.0054,-0.0053,-0.0053,-0.0052,0,0.0575,0.0624,0.0679,0.069,0.0711,0.0731,0.0742,0.0724,0.0749,0.0709,0.0718,0.0603,0.0558,0.0407,0.0219,0.0206,0.005,0.0011,-0.011,-0.0113,-0.0135,-0.0139,-0.0097,-0.0096,-0.0096,-0.0096,-0.0096,0,0.0638,0.0689,0.0713,0.0744,0.0811,0.0797,0.0866,0.0854,0.0865,0.0911,0.0791,0.0799,0.0572,0.0449,0.0265,0.0066,0.0081,-0.01,-0.0135,-0.0103,-0.0103,-0.011,-0.011,-0.0099,-0.0098,-0.0098,-0.0097,0,0.0697,0.0714,0.0783,0.0821,0.0839,0.0887,0.0964,0.1021,0.1005,0.1063,0.1057,0.0953,0.0791,0.0556,0.0316,0.0143,-0.0056,-0.0131,-0.0076,-0.0105,-0.0203,-0.0198,-0.027,-0.0272,-0.0273,-0.0274,-0.0275,0,0.0738,0.0772,0.0839,0.0892,0.0916,0.0993,0.1054,0.1086,0.1162,0.1163,0.1205,0.1068,0.0992,0.0628,0.0299,-0.0019,-0.0059,-0.0197,-0.0229,-0.0193,-0.0221,-0.0214,-0.0207,-0.0223,-0.0223,-0.0223,-0.0224,0,0.0802,0.0815,0.0869,0.0972,0.1055,0.1163,0.1256,0.1341,0.1381,0.1416,0.1438,0.1372,0.1027,0.0706,0.0269,0.0055,-0.0149,-0.0214,-0.0191,-0.018,-0.0155,-0.018,-0.0174,-0.0227,-0.0226,-0.0226,-0.0226,-0.0226,0.0846,0.0896,0.0956,0.1066,0.1172,0.1313,0.1411,0.1519,0.163,0.1684,0.162,0.1523,0.1159,0.06,0.0219,-0.0177,-0.0162,-0.0298,-0.0294,-0.0291,-0.0268,-0.0246,-0.0331,-0.0331,-0.0331,-0.0331,-0.0332,0,0.0887,0.0947,0.1048,0.1182,0.1315,0.1356,0.1533,0.1626,0.1757,0.1801,0.18,0.1452,0.1082,0.0663,0.0072,-0.0277,-0.03,-0.0381,-0.0334,-0.0328,-0.0324,-0.0301,-0.0374,-0.0375,-0.0376,-0.0377,0,0,0.0911,0.1006,0.1064,0.1275,0.1379,0.1549,0.1654,0.1772,0.1843,0.188,0.1827,0.1727,0.121,0.0784,0.0301,-0.004,-0.0099,-0.0103,-0.0031,0.0087,0.0096,-0.024,-0.0195,0,0,0,0,0]}],[{"header":{"parameterUnit":"m.s-1","parameterCategory":2,"la1":30.2991,"la2":30.254,"lo1":-89.0895,"lo2":-89.0444,"dy":0.0017,"dx":0.0017,"nx":28,"ny":28,"refTime":"2025-02-24T09:00:00:Z","depth":"4","parameterNumber":2,"parameterNumberName":"U-component_of_CURRENTS"},"data":[0,0,0,0,0,0,0,0,0,0,0,0,0,0,0,0,0,0,0,0,0,0,0,0,0,0,0,0,0,0,0,0,0,0,0,0,0,0,0,0,0,0,0,0,0,0,0,0,0,0,0,0,0,0,0,0,0,0,0.1658,0.1659,0,0.1724,0.1724,0.1725,0.1815,0.1817,0.1819,0.182,0.1939,0.194,0.1942,0,0,0,0,0,0,0,0,0,0,0,0,0,0.1557,0.1558,0.1658,0.1659,0.166,0.1724,0.1725,0.1725,0.1815,0.1817,0.1819,0.1821,0.1938,0.194,0.1942,0,0,0,0,0,0,0,0,0,0,0,0,0,0.1608,0.1559,0.1658,0.1713,0.1719,0.1724,0.1725,0.1726,0.1815,0.1817,0.182,0.1822,0.1938,0.194,0.1942,0.1908,0,0,0.195,0.1951,0,0,0,0,0,0,0,0,0.1605,0.1612,0.1704,0.171,0.1716,0.1765,0.1732,0.179,0.1814,0.1777,0.182,0.1823,0.1885,0.1891,0.1896,0.1914,0.1919,0.195,0.1952,0.1953,0.1953,0,0,0,0,0,0,0,0.1602,0.1609,0.1683,0.1705,0.1712,0.1717,0.1727,0.1743,0.1816,0.178,0.1787,0.1796,0.1888,0.1893,0.19,0.1921,0.195,0.1952,0.1954,0.1955,0.2088,0.209,0,0,0,0,0,0,0.1596,0.1606,0.1681,0.1685,0.1667,0.1717,0.1728,0.1746,0.1815,0.1828,0.1794,0.18,0.1888,0.1897,0.1904,0.2018,0.1953,0.1955,0.1956,0.2086,0.2089,0.2091,0,0,0,0,0,0,0.1594,0.1603,0.1678,0.1647,0.1658,0.1717,0.1735,0.1746,0.1792,0.1825,0.1839,0.1834,0.189,0.1901,0.197,0.2018,0.1956,0.1958,0.2084,0.2087,0.209,0.215,0,0,0,0,0,0,0.1591,0.1602,0.1629,0.1647,0.1659,0.1713,0.1733,0.1745,0.1791,0.1801,0.1863,0.1874,0.1893,0.1966,0.1972,0.202,0.196,0.2081,0.2085,0.2089,0.2145,0.2154,0.2162,0,0,0,0,0,0.1587,0.1606,0.163,0.164,0.169,0.1715,0.1722,0.1769,0.1791,0.1818,0.187,0.1874,0.1996,0.197,0.1976,0.2026,0.2079,0.2084,0.2088,0.2141,0.2153,0.2162,0,0,0,0,0,0,0.1575,0.1617,0.1645,0.1677,0.1712,0.1731,0.1762,0.1783,0.184,0.1866,0.1893,0.1908,0.1991,0.1994,0.1964,0.2077,0.204,0.2047,0.2078,0.2089,0.2098,0.2093,0.1962,0,0,0,0,0,0.1583,0.1615,0.165,0.168,0.1702,0.1736,0.1758,0.179,0.1831,0.186,0.1902,0.1954,0.2004,0.2037,0.2078,0.2126,0.2136,0.2165,0.2174,0.2181,0.2184,0.224,0.2254,0.2106,0.2106,0.2106,0,0,0.1581,0.1614,0.163,0.1681,0.1713,0.175,0.1757,0.1803,0.1846,0.1861,0.1947,0.1987,0.2025,0.2098,0.2134,0.2113,0.2232,0.2187,0.2193,0.2191,0.2246,0.226,0.2273,0.2109,0.2109,0.2108,0,0,0.1585,0.1631,0.1661,0.1694,0.1753,0.1779,0.1799,0.1846,0.1891,0.1958,0.1994,0.206,0.2127,0.2169,0.2195,0.2269,0.2278,0.2293,0.2332,0.2387,0.2399,0.241,0.2451,0.2465,0.2294,0.2295,0.2295,0,0.1592,0.1634,0.1671,0.171,0.1747,0.1796,0.1836,0.1879,0.1947,0.1987,0.2004,0.2129,0.2159,0.2246,0.2282,0.2289,0.232,0.2287,0.2398,0.2409,0.2419,0.2458,0.2473,0.2298,0.2298,0.2297,0.2297,0,0.1609,0.166,0.1681,0.1755,0.1797,0.184,0.1902,0.196,0.2018,0.2058,0.2168,0.2216,0.2292,0.2315,0.2323,0.2418,0.2418,0.2403,0.2367,0.2437,0.2474,0.2489,0.2303,0.2302,0.2301,0.23,0,0,0.1577,0.1678,0.169,0.1736,0.1829,0.1859,0.1946,0.2028,0.2095,0.2171,0.2258,0.2342,0.2378,0.2409,0.2438,0.2481,0.2578,0.2479,0.248,0.2513,0.2707,0.2554,0.2555,0.2593,0.2595,0.2597,0.2708,0,0.159,0.1664,0.1718,0.1799,0.1842,0.1922,0.1996,0.2079,0.2162,0.2259,0.2326,0.2423,0.2413,0.2472,0.2515,0.2572,0.2618,0.2549,0.264,0.2643,0.2492,0.2566,0.2606,0.2718,0.2721,0.2724,0.2725,0,0.1587,0.1642,0.1722,0.1832,0.1862,0.1925,0.2058,0.2134,0.2269,0.2339,0.244,0.25,0.2602,0.2577,0.2697,0.2663,0.2693,0.2716,0.2721,0.2562,0.2515,0.2633,0.2751,0.2749,0.2747,0.2745,0.2743,0,0.1531,0.1643,0.1713,0.1748,0.1878,0.1943,0.2028,0.2161,0.2242,0.2407,0.2486,0.2602,0.2691,0.2745,0.2802,0.2771,0.2919,0.2875,0.2763,0.2753,0.283,0.2816,0.2953,0.2952,0.2952,0.2952,0.2952,0,0.1509,0.1561,0.1699,0.173,0.1825,0.1929,0.2046,0.215,0.2305,0.2405,0.2532,0.2623,0.2742,0.2833,0.2852,0.2856,0.2965,0.2781,0.2774,0.2854,0.2842,0.284,0.2825,0.2956,0.2955,0.2954,0.2954,0,0.1429,0.152,0.1602,0.175,0.18,0.1873,0.2048,0.2126,0.2292,0.2433,0.2496,0.2677,0.2797,0.2887,0.2995,0.2913,0.2935,0.2909,0.301,0.3005,0.2717,0.2705,0.2778,0.2773,0.2769,0.2766,0.2764,0,0.1391,0.1427,0.1594,0.1647,0.1722,0.1843,0.192,0.2102,0.2187,0.244,0.2493,0.2683,0.2781,0.2814,0.2912,0.2949,0.2911,0.2893,0.277,0.2715,0.2702,0.2695,0.2688,0.2758,0.2757,0.2756,0.2755,0,0.1313,0.1393,0.1465,0.1573,0.1667,0.1756,0.1888,0.1937,0.215,0.2317,0.244,0.2517,0.2652,0.2724,0.2787,0.2798,0.2882,0.2853,0.2859,0.2743,0.2691,0.2681,0.2678,0.2742,0.2744,0.2745,0.2746,0,0.1262,0.1296,0.1402,0.1485,0.1591,0.1645,0.1728,0.1836,0.1943,0.2219,0.2257,0.2462,0.2634,0.2649,0.2704,0.2712,0.2653,0.2538,0.2559,0.2575,0.2455,0.2356,0.2308,0,0,0,0,0,0.1205,0.1234,0.13,0.1386,0.148,0.1544,0.1692,0.178,0.1984,0.2019,0.2134,0.2252,0.2352,0.2453,0.242,0.2602,0.2654,0.2549,0.2529,0.2669,0.2685,0.256,0,0,0,0,0,0,0.1168,0.1234,0.1261,0.1276,0.1315,0.1404,0.1497,0.1634,0.1663,0.1881,0.195,0.211,0.2241,0.2355,0.2377,0.2406,0.2344,0.2675,0.2669,0.2661,0.2675,0.2687,0.2564,0,0,0,0,0]},{"header":{"parameterUnit":"m.s-1","parameterCategory":2,"la1":30.2991,"la2":30.254,"lo1":-89.0895,"lo2":-89.0444,"dy":0.0017,"dx":0.0017,"nx":28,"ny":28,"refTime":"2025-02-24T09:00:00:Z","depth":"4","parameterNumber":3,"parameterNumberName":"V-component_of_CURRENTS"},"data":[0,0,0,0,0,0,0,0,0,0,0,0,0,0,0,0,0,0,0,0,0,0,0,0,0,0,0,0,0,0,0,0,0,0,0,0,0,0,0,0,0,0,0,0,0,0,0,0,0,0,0,0,0,0,0,0,0,0,0.0231,0.0231,0,0.02,0.0199,0.0199,0.0157,0.0156,0.0155,0.0155,0.0064,0.0062,0.006,0,0,0,0,0,0,0,0,0,0,0,0,0,0.0234,0.0234,0.0231,0.0231,0.0231,0.02,0.0199,0.0199,0.0157,0.0156,0.0155,0.0155,0.0065,0.0063,0.006,0,0,0,0,0,0,0,0,0,0,0,0,0,0.0219,0.0234,0.0231,0.0207,0.0205,0.02,0.0199,0.0199,0.0157,0.0156,0.0155,0.0154,0.0066,0.0063,0.006,0.006,0,0,0.0051,0.005,0,0,0,0,0,0,0,0,0.022,0.0219,0.0211,0.0209,0.0206,0.0182,0.0167,0.015,0.0157,0.0173,0.0155,0.0154,0.01,0.0094,0.0089,0.0056,0.0052,0.0051,0.0049,0.0048,0.0047,0,0,0,0,0,0,0,0.0221,0.022,0.0217,0.0211,0.0208,0.0191,0.0188,0.0164,0.014,0.0172,0.0169,0.0168,0.0098,0.0092,0.0086,0.005,0.0051,0.0049,0.0047,0.0046,-0.0009,-0.0008,0,0,0,0,0,0,0.023,0.0221,0.0218,0.0216,0.0213,0.0192,0.0188,0.019,0.0141,0.0134,0.0169,0.0166,0.0097,0.009,0.0083,0.0075,0.0048,0.0046,0.0044,-0.0009,-0.0009,-0.0008,0,0,0,0,0,0,0.023,0.023,0.022,0.0219,0.0217,0.0193,0.0195,0.019,0.0184,0.014,0.0131,0.0169,0.0096,0.0087,0.0067,0.0071,0.0044,0.0042,-0.0009,-0.0009,-0.0008,0.0063,0,0,0,0,0,0,0.0231,0.0231,0.0236,0.022,0.0217,0.0225,0.0195,0.019,0.0186,0.0182,0.0137,0.0128,0.0095,0.0071,0.0064,0.0067,0.004,-0.0009,-0.0009,-0.0008,0.006,0.0065,0.007,0,0,0,0,0,0.0231,0.0252,0.0237,0.0237,0.0225,0.0226,0.0224,0.0202,0.0187,0.0192,0.016,0.0129,0.0068,0.007,0.0061,0.0063,-0.001,-0.0009,-0.0009,0.0058,0.0064,0.007,0,0,0,0,0,0,0.026,0.0249,0.0232,0.0249,0.0239,0.022,0.0226,0.021,0.019,0.0185,0.0138,0.0127,0.0108,0.0078,0.0081,0.0048,0.0022,0.0021,0.0075,0.0081,0.0086,0.0099,0.0037,0,0,0,0,0,0.0268,0.0279,0.0261,0.0274,0.0271,0.0248,0.0246,0.0233,0.0213,0.0204,0.0173,0.0136,0.0105,0.0088,0.0059,0.0047,0.0007,0.0039,0.0045,0.0049,0.0053,0.0001,0.0002,-0.0006,-0.0006,-0.0006,0,0,0.0286,0.0279,0.0287,0.0281,0.027,0.0276,0.0244,0.025,0.0252,0.0197,0.0191,0.0155,0.0106,0.009,0.0078,0.0065,0.0031,0.005,0.0054,0.0055,0.0002,0.0003,0.0003,-0.0006,-0.0006,-0.0006,0,0,0.0326,0.0318,0.0335,0.033,0.0319,0.0306,0.031,0.0294,0.0281,0.0274,0.023,0.0201,0.0161,0.0125,0.01,0.0115,0.006,0.0103,0.0138,0.0088,0.0088,0.0088,0.0042,0.0037,0.0104,0.0104,0.0105,0,0.0343,0.0361,0.0342,0.0352,0.0355,0.0323,0.034,0.0327,0.0306,0.0298,0.0282,0.0216,0.0176,0.0143,0.0147,0.0127,0.009,0.0121,0.0095,0.0094,0.0092,0.0045,0.0039,0.0108,0.0108,0.0107,0.0107,0,0.0388,0.0401,0.0414,0.0412,0.0413,0.0428,0.0405,0.0402,0.0382,0.0362,0.0333,0.0279,0.0238,0.0218,0.0188,0.0157,0.0132,0.011,0.0083,0.0098,0.0046,0.0039,0.0113,0.0112,0.0111,0.011,0,0,0.0427,0.0442,0.0446,0.0455,0.0447,0.0455,0.0458,0.045,0.0452,0.0417,0.0409,0.035,0.0317,0.0286,0.0237,0.0194,0.0153,0.0154,0.015,0.0115,0.0043,0.0034,0.0024,0.0125,0.0124,0.0123,0.0013,0,0.0464,0.0501,0.0497,0.0533,0.0548,0.0526,0.0533,0.0519,0.0499,0.0485,0.0418,0.0395,0.0343,0.0326,0.0273,0.0182,0.0135,0.0185,0.0028,0.0024,0.0018,0.0015,0.012,0.0006,0.0004,0.0003,0.0002,0,0.0502,0.0523,0.0567,0.0589,0.0594,0.0613,0.0617,0.062,0.0586,0.0571,0.0528,0.0474,0.0403,0.0362,0.0211,0.0245,0.0154,0.0081,0.0074,0.0036,-0.0,-0.0015,-0.0013,-0.0012,-0.0011,-0.001,-0.0009,0,0.0531,0.0569,0.0608,0.0617,0.0636,0.0655,0.0665,0.0649,0.0663,0.0628,0.0629,0.0529,0.0486,0.0358,0.0205,0.0207,0.0037,0.0016,-0.0081,-0.0083,-0.0072,-0.0071,-0.0088,-0.0088,-0.0087,-0.0087,-0.0087,0,0.0565,0.0598,0.0631,0.0654,0.0705,0.07,0.0748,0.0741,0.0742,0.0762,0.0679,0.0661,0.0484,0.0365,0.0221,0.0045,0.0043,-0.0076,-0.0112,-0.004,-0.0034,-0.0078,-0.0076,-0.0091,-0.009,-0.009,-0.0089,0,0.0588,0.061,0.066,0.0702,0.0723,0.0759,0.0819,0.0851,0.0842,0.0865,0.0859,0.0754,0.0599,0.0412,0.0196,0.0075,-0.0096,-0.0158,-0.0064,-0.0092,-0.0187,-0.018,-0.0276,-0.0277,-0.0278,-0.0279,-0.028,0,0.0602,0.0631,0.07,0.0741,0.0769,0.083,0.0879,0.0903,0.0939,0.0919,0.0929,0.0798,0.0704,0.0395,0.0192,-0.0088,-0.0127,-0.022,-0.0207,-0.0181,-0.0207,-0.0198,-0.0189,-0.0281,-0.0281,-0.0282,-0.0282,0,0.0627,0.0653,0.0692,0.0781,0.085,0.0925,0.0992,0.1028,0.1049,0.1047,0.0986,0.0826,0.0647,0.0402,0.0182,-0.0018,-0.0163,-0.0232,-0.0231,-0.0219,-0.0189,-0.0212,-0.0202,-0.0286,-0.0285,-0.0285,-0.0285,0,0.0643,0.0673,0.073,0.0807,0.0901,0.0985,0.1023,0.106,0.1091,0.1069,0.1044,0.0853,0.074,0.0437,0.0235,0.0035,-0.0016,-0.0084,-0.0091,-0.009,-0.0006,0.0062,0.0011,0,0,0,0,0,0.0647,0.0679,0.0752,0.0834,0.0934,0.0991,0.1082,0.1112,0.1138,0.1108,0.1078,0.0914,0.0611,0.0478,0.0277,0.0203,-0.0059,-0.004,-0.0141,-0.0306,-0.0302,-0.0236,0,0,0,0,0,0,0.0646,0.0707,0.074,0.0848,0.0914,0.1025,0.109,0.1112,0.1091,0.1084,0.0929,0.0853,0.0562,0.0724,0.0269,0.0208,0.0114,-0.0179,-0.0184,-0.0309,-0.0305,-0.0301,-0.0232,0,0,0,0,0]}]]